Change the Weather History Date:

Sunday, March 16, 2014

  Actual Average Record
Temperature  
Mean Temperature 32 °F -  
Max Temperature 42 °F 42 °F 64 °F (2015)
Min Temperature 21 °F 26 °F 10 °F (1997)
Degree Days  
Heating Degree Days 34    
Moisture  
Dew Point 24 °F    
Average Humidity 73    
Maximum Humidity 100    
Minimum Humidity 42    
Precipitation  
Precipitation 0.06 in - - ()
Sea Level Pressure  
Sea Level Pressure 29.99 in    
Wind  
Wind Speed 7 mph (East)    
Max Wind Speed 16 mph    
Max Gust Speed 26 mph    
Visibility 6 miles    
Events Snow    
Averages and records for this station are not official NWS values.
T = Trace of Precipitation, MM = Missing Value Source: NWS Daily Summary

Daily Weather History Graph

Daily Weather History Graph

Search for Another Location

Airport or City:

Trip Planner

Search our weather history database for the weather conditions in past years. The results will help you decide how hot, cold, wet, or windy it might be!

Date:

Astronomy

Mar. 16, 2014 Rise Set
Actual Time 7:28 AM EDT 7:27 PM EDT
Civil Twilight 7:02 AM EDT 7:53 PM EDT
Nautical Twilight 6:32 AM EDT 8:24 PM EDT
Astronomical Twilight 6:01 AM EDT 8:55 PM EDT
Moon 7:42 PM EDT (3/16) 7:11 AM EDT (3/16)
Length of Visible Light 12h 50m
Length of Day
11h 58m
Full, 100% of the Moon is Illuminated
Mar 16
Full
Mar 16
Full
Mar 23
Last Quarter
Mar 30
New
Apr 7
First Quarter

Hourly Weather History & Observations

Time (EDT) Temp. Windchill Dew Point Humidity Pressure Visibility Wind Dir Wind Speed Gust Speed Precip Events Conditions
12:36 AM 39.2 °F 33.6 °F 23.0 °F 52% 30.09 in 10.0 mi West 8.1 mph - N/A   Clear
12:56 AM 39.2 °F 33.0 °F 23.0 °F 52% 30.09 in 10.0 mi West 9.2 mph - N/A   Clear
1:15 AM 39.2 °F 33.6 °F 23.0 °F 52% 30.09 in 10.0 mi West 8.1 mph - N/A   Clear
1:35 AM 39.2 °F 33.6 °F 23.0 °F 52% 30.09 in 10.0 mi West 8.1 mph - N/A   Clear
1:50 AM 39.2 °F 33.6 °F 23.0 °F 52% 30.09 in 10.0 mi West 8.1 mph - N/A   Clear
2:15 AM 39.2 °F 34.2 °F 23.0 °F 52% 30.09 in 10.0 mi West 6.9 mph - N/A   Clear
2:35 AM 39.2 °F 34.2 °F 23.0 °F 52% 30.09 in 10.0 mi West 6.9 mph - N/A   Clear
2:55 AM 39.2 °F 35.0 °F 23.0 °F 52% 30.08 in 10.0 mi West 5.8 mph - N/A   Clear
3:15 AM 39.2 °F 35.9 °F 23.0 °F 52% 30.08 in 10.0 mi West 4.6 mph - N/A   Clear
3:35 AM 39.2 °F - 23.0 °F 52% 30.07 in 10.0 mi Calm Calm - N/A   Clear
3:55 AM 39.2 °F - 21.2 °F 49% 30.06 in 10.0 mi Calm Calm - N/A   Clear
4:10 AM 39.2 °F - 21.2 °F 49% 30.06 in 10.0 mi Calm Calm - N/A   Clear
4:35 AM 41.0 °F - 21.2 °F 45% 30.06 in 10.0 mi Calm Calm - N/A   Clear
4:55 AM 39.2 °F 37.0 °F 23.0 °F 52% 30.06 in 10.0 mi West 3.5 mph - N/A   Clear
5:15 AM 37.4 °F 34.9 °F 23.0 °F 56% 30.07 in 10.0 mi South 3.5 mph - N/A   Clear
5:35 AM 37.4 °F - 23.0 °F 56% 30.06 in 10.0 mi Calm Calm - N/A   Clear
5:55 AM 41.0 °F - 21.2 °F 45% 30.06 in 10.0 mi Calm Calm - N/A   Clear
6:15 AM 42.8 °F 41.1 °F 21.2 °F 42% 30.06 in 10.0 mi North 3.5 mph - N/A   Clear
6:30 AM 42.8 °F - 23.0 °F 46% 30.06 in 10.0 mi Calm Calm - N/A   Clear
6:55 AM 39.2 °F 37.0 °F 23.0 °F 52% 30.05 in 10.0 mi East 3.5 mph - N/A   Clear
7:10 AM 39.2 °F 35.9 °F 23.0 °F 52% 30.05 in 10.0 mi East 4.6 mph - N/A   Clear
7:35 AM 39.2 °F 35.9 °F 23.0 °F 52% 30.05 in 10.0 mi ESE 4.6 mph - N/A   Clear
8:10 AM 39.2 °F 33.6 °F 23.0 °F 52% 30.05 in 10.0 mi ESE 8.1 mph - N/A   Clear
8:35 AM 39.2 °F 34.2 °F 24.8 °F 56% 30.05 in 10.0 mi East 6.9 mph - N/A   Clear
8:55 AM 37.4 °F 31.4 °F 23.0 °F 56% 30.05 in 10.0 mi East 8.1 mph - N/A   Clear
9:15 AM 35.6 °F 28.0 °F 23.0 °F 60% 30.04 in 10.0 mi East 10.4 mph - N/A   Clear
9:35 AM 35.6 °F 28.6 °F 23.0 °F 60% 30.05 in 10.0 mi East 9.2 mph - N/A   Clear
9:55 AM 35.6 °F 28.6 °F 23.0 °F 60% 30.05 in 10.0 mi East 9.2 mph - N/A   Scattered Clouds
10:15 AM 33.8 °F 27.0 °F 23.0 °F 65% 30.05 in 10.0 mi East 8.1 mph - N/A   Clear
10:35 AM 33.8 °F 26.4 °F 23.0 °F 65% 30.05 in 10.0 mi East 9.2 mph - N/A   Clear
10:55 AM 33.8 °F 25.8 °F 23.0 °F 65% 30.05 in 10.0 mi East 10.4 mph - N/A   Clear
11:15 AM 35.6 °F 28.6 °F 23.0 °F 60% 30.04 in 10.0 mi East 9.2 mph - N/A   Clear
11:30 AM 35.6 °F 29.2 °F 23.0 °F 60% 30.05 in 10.0 mi East 8.1 mph - N/A   Clear
11:56 AM 35.6 °F 28.0 °F 23.0 °F 60% 30.04 in 10.0 mi East 10.4 mph - N/A   Scattered Clouds
12:00 PM 35.6 °F 28.6 °F 23.0 °F 60% 30.04 in 10.0 mi ESE 9.2 mph - N/A   Clear
12:15 PM 33.8 °F 26.4 °F 24.8 °F 70% 30.05 in 10.0 mi ESE 9.2 mph - N/A   Mostly Cloudy
12:35 PM 35.6 °F 30.7 °F 24.8 °F 65% 30.06 in 10.0 mi ESE 5.8 mph - N/A   Mostly Cloudy
12:55 PM 35.6 °F 30.7 °F 23.0 °F 60% 30.07 in 10.0 mi SE 5.8 mph - N/A   Scattered Clouds
1:10 PM 35.6 °F 31.7 °F 24.8 °F 65% 30.06 in 10.0 mi East 4.6 mph - N/A   Mostly Cloudy
1:35 PM 35.6 °F 29.9 °F 24.8 °F 65% 30.05 in 7.0 mi East 6.9 mph - N/A Snow Light Snow
1:55 PM 33.8 °F 26.4 °F 26.6 °F 75% 30.02 in 7.0 mi East 9.2 mph - N/A Snow Light Snow
2:15 PM 33.8 °F 25.8 °F 26.6 °F 75% 30.01 in 1.5 mi East 10.4 mph 17.3 mph N/A Snow Light Snow
2:40 PM 32.0 °F 24.8 °F 28.4 °F 87% 30.00 in 1.0 mi East 8.1 mph - N/A Snow Light Snow
3:10 PM 30.2 °F 21.9 °F 30.2 °F 100% 29.97 in 0.2 mi East 9.2 mph - N/A Snow Snow
3:36 PM 30.2 °F 21.3 °F 28.4 °F 93% 29.96 in 0.2 mi East 10.4 mph - N/A Snow Snow
4:15 PM 28.4 °F 20.4 °F 28.4 °F 100% 29.94 in 0.2 mi East 8.1 mph - N/A Snow Heavy Snow
4:35 PM 28.4 °F 19.7 °F 28.4 °F 100% 29.92 in 0.2 mi East 9.2 mph 17.3 mph N/A Snow Snow
4:55 PM 28.4 °F 20.4 °F 28.4 °F 100% 29.92 in 0.2 mi East 8.1 mph 16.1 mph N/A Snow Snow
5:15 PM 28.4 °F 18.5 °F 28.4 °F 100% 29.89 in 0.2 mi East 11.5 mph 17.3 mph N/A Snow Light Snow
5:35 PM 28.4 °F 19.1 °F 28.4 °F 100% 29.90 in 0.2 mi East 10.4 mph - N/A Snow Snow
5:55 PM 28.4 °F 18.5 °F 28.4 °F 100% 29.88 in 0.2 mi East 11.5 mph 21.9 mph N/A Snow Snow
6:15 PM 26.6 °F 16.2 °F 26.6 °F 100% 29.86 in 0.2 mi East 11.5 mph 18.4 mph N/A Snow Heavy Snow
6:35 PM 26.6 °F 15.2 °F 26.6 °F 100% 29.87 in 0.2 mi East 13.8 mph 20.7 mph N/A Snow Snow
6:55 PM 26.6 °F 16.8 °F 26.6 °F 100% 29.86 in 0.2 mi East 10.4 mph 18.4 mph N/A Snow Heavy Snow
7:15 PM 26.6 °F 16.8 °F 26.6 °F 100% 29.86 in 0.2 mi East 10.4 mph 18.4 mph N/A Snow Snow
7:35 PM 26.6 °F 14.3 °F 26.6 °F 100% 29.85 in 0.2 mi East 16.1 mph 21.9 mph N/A Snow Heavy Snow
7:55 PM 26.6 °F 14.7 °F 24.8 °F 93% 29.85 in 0.2 mi East 15.0 mph 24.2 mph 0.01 in Snow Heavy Snow
8:15 PM 24.8 °F 12.4 °F 24.8 °F 100% 29.85 in 0.2 mi East 15.0 mph 26.5 mph 0.02 in Snow Heavy Snow
8:35 PM 24.8 °F 13.4 °F 24.8 °F 100% 29.85 in 0.2 mi East 12.7 mph 20.7 mph 0.03 in Snow Heavy Snow
8:55 PM 24.8 °F 12.9 °F 24.8 °F 100% 29.85 in 0.2 mi East 13.8 mph 19.6 mph 0.01 in Snow Heavy Snow
9:15 PM 24.8 °F 13.4 °F 24.8 °F 100% 29.85 in 0.2 mi East 12.7 mph 20.7 mph 0.01 in Snow Heavy Snow
9:30 PM 24.8 °F 13.4 °F 24.8 °F 100% 29.85 in 0.2 mi East 12.7 mph 20.7 mph 0.01 in Snow Heavy Snow
9:55 PM 24.8 °F 14.0 °F 23.0 °F 93% 29.84 in 0.2 mi East 11.5 mph 20.7 mph N/A Snow Heavy Snow
10:15 PM 24.8 °F 12.4 °F 23.0 °F 93% 29.84 in 0.2 mi East 15.0 mph 23.0 mph 0.01 in Snow Heavy Snow
10:35 PM 23.0 °F 10.6 °F 23.0 °F 100% 29.86 in 0.2 mi East 13.8 mph 19.6 mph 0.01 in Snow Heavy Snow
10:55 PM 23.0 °F 12.4 °F 21.2 °F 93% 29.85 in 0.2 mi East 10.4 mph 19.6 mph N/A Snow Heavy Snow
11:15 PM 21.2 °F 10.9 °F 21.2 °F 100% 29.85 in 0.2 mi East 9.2 mph 18.4 mph N/A Snow Heavy Snow
11:35 PM 21.2 °F 8.9 °F 21.2 °F 100% 29.84 in 0.2 mi East 12.7 mph 18.4 mph N/A Snow Snow
11:55 PM 21.2 °F 8.9 °F 21.2 °F 100% 29.84 in 0.2 mi East 12.7 mph 19.6 mph N/A Snow Heavy Snow